contact:dominique.lefevre@mio.osupytheas.fr, maurice.libes@osupytheas.fr, didier.mallarino@osupytheas.fr
Project:EMSO http://www.emso-fr.org/EMSO-France
Depth: 2436.0 m
Title:EMSO Ligure Ouest : Data MII capteur AQUADOPP
Date,Latitude,Longitude,X_East,Y_North,Z_Up,Amplitude_X,Amplitude_Y,Amplitude_Z,Batterie,SoundSpeed,Heading,Pitch,Roll,Pressure,TIS,Speed,Direction
, degrees North, degrees East, m.s-1, m.s-1,m.s-1, 1, 1, 1, Volt, m.s-1, degree, degree, degree, dbar, degree_C, m.s-1, degree
2023-11-15T00:04:03,42.805,6.029,0.009,0.011,0.005,105.0,103.0,103.0,13.3,1505.2,350.2,-0.8,1.8,2471.437,13.3,0.014,39.3
2023-11-15T00:07:03,42.805,6.029,0.015,0.024,-0.022,105.0,103.0,103.0,13.4,1505.2,334.9,-0.8,1.8,2471.47,13.3,0.028,32.0
2023-11-15T00:10:03,42.805,6.029,0.001,0.015,-0.003,104.0,104.0,102.0,13.4,1505.2,0.8,-0.7,1.8,2471.474,13.3,0.015,3.8
2023-11-15T00:13:03,42.805,6.029,0.016,0.001,-0.022,104.0,104.0,101.0,13.4,1505.2,353.9,-0.7,1.8,2471.493,13.3,0.016,86.4
2023-11-15T00:16:03,42.805,6.029,-0.013,0.029,-0.033,104.0,104.0,103.0,13.4,1505.2,336.5,-0.8,1.8,2471.473,13.29,0.031,335.9
2023-11-15T00:19:03,42.805,6.029,0.008,0.005,-0.039,104.0,106.0,102.0,13.4,1505.2,348.3,-0.8,1.8,2471.494,13.3,0.009,58.0
2023-11-15T00:22:03,42.805,6.029,0.015,0.009,0.019,104.0,104.0,102.0,13.4,1505.2,354.4,-0.8,1.8,2471.447,13.3,0.017,59.0
2023-11-15T00:25:03,42.805,6.029,0.02,0.009,-0.022,105.0,104.0,103.0,13.4,1505.2,353.4,-0.7,1.8,2471.459,13.3,0.021,65.8
2023-11-15T00:28:03,42.805,6.029,0.021,0.013,-0.034,105.0,105.0,103.0,13.4,1505.2,351.8,-0.8,1.8,2471.442,13.3,0.024,58.2
2023-11-15T00:31:03,42.805,6.029,0.013,0.029,-0.006,104.0,104.0,101.0,13.4,1505.2,334.5,-0.7,1.8,2471.453,13.3,0.031,24.1
2023-11-15T00:34:03,42.805,6.029,0.025,0.007,0.01,105.0,103.0,102.0,13.4,1505.2,349.6,-0.8,1.8,2471.463,13.29,0.025,74.4
2023-11-15T00:37:03,42.805,6.029,0.013,-0.003,-0.018,104.0,106.0,102.0,13.4,1505.2,342.7,-0.8,1.8,2471.468,13.29,0.013,103.0
2023-11-15T00:40:03,42.805,6.029,0.034,-0.008,-0.027,105.0,104.0,102.0,13.4,1505.2,337.3,-0.8,1.8,2471.454,13.29,0.034,103.2
2023-11-15T00:43:03,42.805,6.029,0.009,0.0,0.001,104.0,104.0,102.0,13.4,1505.2,353.1,-0.8,1.8,2471.453,13.29,0.009,90.0
2023-11-15T00:46:03,42.805,6.029,0.033,-0.015,-0.025,103.0,104.0,102.0,13.3,1505.2,333.8,-0.7,1.8,2471.468,13.29,0.036,114.4
2023-11-15T00:49:03,42.805,6.029,0.018,0.001,-0.02,104.0,104.0,103.0,13.3,1505.2,348.6,-0.7,1.8,2471.463,13.29,0.018,86.8
2023-11-15T00:52:03,42.805,6.029,0.01,0.007,-0.072,104.0,103.0,103.0,13.4,1505.2,357.1,-0.8,1.8,2471.443,13.29,0.012,55.0
2023-11-15T00:55:03,42.805,6.029,0.013,0.0,-0.014,104.0,104.0,103.0,13.3,1505.2,349.2,-0.7,1.8,2471.424,13.29,0.013,90.0
2023-11-15T00:58:03,42.805,6.029,0.002,0.014,0.003,103.0,105.0,103.0,13.4,1505.2,344.8,-0.7,1.8,2471.441,13.29,0.014,8.1
2023-11-15T01:04:03,42.805,6.029,0.014,-0.01,-0.022,104.0,105.0,102.0,13.4,1505.2,346.6,-0.8,1.8,2471.463,13.29,0.017,125.5
2023-11-15T01:07:03,42.805,6.029,0.02,0.0,-0.044,105.0,103.0,104.0,13.3,1505.2,334.8,-0.8,1.8,2471.498,13.29,0.02,90.0
2023-11-15T01:10:03,42.805,6.029,0.039,-0.015,-0.03,103.0,103.0,102.0,13.4,1505.2,355.2,-0.8,1.8,2471.467,13.29,0.041,111.0
2023-11-15T01:13:03,42.805,6.029,0.029,-0.004,-0.009,102.0,106.0,102.0,13.3,1505.2,346.4,-0.8,1.8,2471.466,13.29,0.029,97.8
2023-11-15T01:16:03,42.805,6.029,0.006,0.007,-0.027,103.0,104.0,103.0,13.4,1505.2,344.3,-0.8,1.8,2471.446,13.29,0.009,40.6
2023-11-15T01:19:03,42.805,6.029,0.0,0.02,-0.035,105.0,103.0,102.0,13.4,1505.2,344.4,-0.8,1.9,2471.455,13.29,0.02,0.0
2023-11-15T01:22:03,42.805,6.029,0.012,-0.009,-0.041,105.0,103.0,104.0,13.3,1505.2,347.6,-0.8,1.8,2471.447,13.29,0.015,126.9
2023-11-15T01:25:03,42.805,6.029,0.004,0.001,-0.009,104.0,102.0,103.0,13.4,1505.2,0.0,-0.8,1.8,2471.44,13.29,0.004,76.0
2023-11-15T01:28:03,42.805,6.029,-0.003,0.027,-0.015,104.0,104.0,102.0,13.4,1505.2,350.5,-0.8,1.8,2471.428,13.29,0.027,353.7
2023-11-15T01:31:03,42.805,6.029,0.016,-0.008,-0.015,104.0,104.0,101.0,13.4,1505.2,349.0,-0.8,1.8,2471.449,13.29,0.017,116.6
2023-11-15T01:34:03,42.805,6.029,0.013,0.001,-0.031,104.0,104.0,101.0,13.4,1505.2,355.7,-0.8,1.8,2471.452,13.29,0.013,85.6
2023-11-15T01:37:03,42.805,6.029,0.011,0.011,-0.007,103.0,104.0,101.0,13.4,1505.2,342.0,-0.7,1.8,2471.438,13.29,0.015,45.0
2023-11-15T01:40:03,42.805,6.029,0.004,-0.004,-0.037,105.0,104.0,101.0,13.4,1505.2,336.2,-0.8,1.9,2471.396,13.29,0.005,135.0
2023-11-15T01:43:03,42.805,6.029,0.023,0.015,-0.011,103.0,103.0,101.0,13.3,1505.2,359.1,-0.8,1.8,2471.448,13.29,0.027,56.9
2023-11-15T01:46:03,42.805,6.029,0.001,-0.014,-0.051,104.0,104.0,102.0,13.3,1505.2,343.3,-0.7,1.8,2471.397,13.29,0.014,175.9
2023-11-15T01:49:03,42.805,6.029,0.034,-0.017,-0.059,103.0,104.0,102.0,13.3,1505.2,333.4,-0.8,1.8,2471.447,13.29,0.038,116.6
2023-11-15T01:52:03,42.805,6.029,0.014,0.012,0.001,104.0,104.0,102.0,13.4,1505.2,342.1,-0.7,1.8,2471.441,13.29,0.018,49.4
2023-11-15T01:55:03,42.805,6.029,0.02,0.0,0.001,103.0,104.0,102.0,13.4,1505.2,333.4,-0.7,1.8,2471.436,13.29,0.02,90.0
2023-11-15T01:58:03,42.805,6.029,0.015,0.002,-0.039,104.0,104.0,101.0,13.3,1505.2,353.4,-0.8,1.8,2471.427,13.29,0.015,82.4
2023-11-15T02:04:03,42.805,6.029,-0.015,0.009,-0.027,105.0,104.0,102.0,13.3,1505.2,344.1,-0.8,1.8,2471.489,13.29,0.017,301.0
2023-11-15T02:07:03,42.805,6.029,0.006,0.002,-0.014,104.0,103.0,102.0,13.3,1505.2,354.8,-0.8,1.8,2471.437,13.29,0.006,71.6
2023-11-15T02:10:03,42.805,6.029,0.01,-0.007,-0.025,103.0,105.0,101.0,13.3,1505.2,352.5,-0.8,1.8,2471.506,13.29,0.012,125.0
2023-11-15T02:13:03,42.805,6.029,0.002,0.039,-0.006,104.0,102.0,101.0,13.3,1505.2,338.3,-0.7,1.8,2471.463,13.29,0.039,2.9
2023-11-15T02:16:03,42.805,6.029,0.015,0.014,-0.015,102.0,106.0,102.0,13.4,1505.2,351.0,-0.8,1.8,2471.472,13.29,0.02,47.0
2023-11-15T02:19:03,42.805,6.029,0.014,-0.007,-0.072,104.0,103.0,101.0,13.4,1505.2,346.4,-0.8,1.8,2471.462,13.29,0.015,116.6
2023-11-15T02:22:03,42.805,6.029,0.026,-0.001,-0.026,104.0,104.0,102.0,13.4,1505.2,345.0,-0.8,1.8,2471.46,13.29,0.026,92.2
2023-11-15T02:25:03,42.805,6.029,-0.003,0.004,-0.02,104.0,103.0,102.0,13.4,1505.2,340.5,-0.8,1.8,2471.421,13.29,0.005,323.1
2023-11-15T02:28:03,42.805,6.029,0.005,0.017,-0.012,105.0,103.0,101.0,13.3,1505.2,0.0,-0.8,1.8,2471.453,13.29,0.017,16.4
2023-11-15T02:31:03,42.805,6.029,0.005,0.007,-0.043,103.0,104.0,102.0,13.3,1505.2,342.3,-0.8,1.8,2471.429,13.29,0.008,35.5
2023-11-15T02:34:03,42.805,6.029,0.0,0.006,-0.018,105.0,103.0,102.0,13.3,1505.2,354.4,-0.8,1.8,2471.433,13.29,0.006,0.0
2023-11-15T02:37:03,42.805,6.029,0.042,0.009,0.006,103.0,104.0,101.0,13.4,1505.2,352.5,-0.8,1.8,2471.435,13.29,0.042,77.9
2023-11-15T02:40:03,42.805,6.029,0.008,-0.006,-0.04,103.0,103.0,102.0,13.3,1505.2,343.6,-0.8,1.8,2471.438,13.29,0.01,126.9
2023-11-15T02:43:03,42.805,6.029,0.02,0.0,-0.032,104.0,104.0,103.0,13.3,1505.2,342.9,-0.8,1.8,2471.428,13.29,0.02,90.0
2023-11-15T02:46:03,42.805,6.029,-0.003,0.017,-0.014,104.0,104.0,101.0,13.3,1505.2,347.5,-0.8,1.8,2471.394,13.29,0.017,350.0
2023-11-15T02:49:03,42.805,6.029,-0.027,0.01,-0.037,104.0,104.0,103.0,13.4,1505.2,334.9,-0.8,1.8,2471.416,13.29,0.028,290.3
2023-11-15T02:52:03,42.805,6.029,0.013,0.006,-0.036,104.0,102.0,104.0,13.3,1505.2,357.1,-0.8,1.8,2471.413,13.29,0.014,65.2
2023-11-15T02:55:03,42.805,6.029,-0.008,-0.001,-0.019,103.0,102.0,103.0,13.4,1505.2,351.0,-0.8,1.8,2471.486,13.3,0.008,262.9
2023-11-15T02:58:03,42.805,6.029,0.018,0.014,-0.023,103.0,102.0,102.0,13.4,1505.2,337.0,-0.8,1.8,2471.447,13.3,0.022,52.1
2023-11-15T03:04:03,42.805,6.029,0.003,0.002,-0.048,103.0,103.0,103.0,13.3,1505.2,341.3,-0.8,1.8,2471.453,13.29,0.003,56.3
2023-11-15T03:07:03,42.805,6.029,0.015,0.019,-0.017,104.0,105.0,102.0,13.4,1505.2,337.7,-0.7,1.8,2471.502,13.29,0.024,38.3
2023-11-15T03:10:03,42.805,6.029,0.014,-0.002,-0.029,103.0,103.0,101.0,13.3,1505.2,353.4,-0.8,1.8,2471.478,13.29,0.014,98.1
2023-11-15T03:13:03,42.805,6.029,0.025,-0.001,-0.025,104.0,104.0,103.0,13.4,1505.2,351.4,-0.8,1.8,2471.481,13.3,0.025,92.3
2023-11-15T03:16:03,42.805,6.029,0.008,0.002,-0.054,105.0,103.0,101.0,13.3,1505.2,341.2,-0.8,1.8,2471.471,13.3,0.008,76.0
2023-11-15T03:19:03,42.805,6.029,0.0,0.006,-0.034,107.0,103.0,102.0,13.3,1505.2,341.8,-0.7,1.8,2471.471,13.3,0.006,0.0
2023-11-15T03:22:03,42.805,6.029,-0.002,-0.002,-0.007,104.0,102.0,102.0,13.4,1505.2,357.4,-0.7,1.8,2471.401,13.3,0.002,225.0
2023-11-15T03:25:03,42.805,6.029,0.008,0.006,-0.02,103.0,106.0,102.0,13.3,1505.2,343.4,-0.7,1.8,2471.452,13.3,0.01,53.1
2023-11-15T03:28:03,42.805,6.029,0.023,0.017,-0.022,105.0,108.0,102.0,13.4,1505.2,336.6,-0.8,1.8,2471.449,13.3,0.028,53.5
2023-11-15T03:31:03,42.805,6.029,0.039,0.0,-0.009,102.0,105.0,104.0,13.4,1505.2,349.6,-0.7,1.8,2471.479,13.3,0.039,90.0
2023-11-15T03:34:03,42.805,6.029,-0.002,0.008,-0.017,106.0,103.0,103.0,13.4,1505.2,347.1,-0.7,1.8,2471.431,13.3,0.008,346.0
2023-11-15T03:37:03,42.805,6.029,0.014,0.0,-0.014,103.0,104.0,103.0,13.4,1505.2,359.1,-0.8,1.8,2471.438,13.3,0.014,90.0
2023-11-15T03:40:03,42.805,6.029,-0.007,0.01,-0.045,102.0,105.0,103.0,13.4,1505.2,343.7,-0.8,1.8,2471.446,13.3,0.012,325.0
2023-11-15T03:43:03,42.805,6.029,0.009,0.028,-0.028,104.0,104.0,104.0,13.4,1505.2,337.3,-0.8,1.8,2471.411,13.3,0.029,17.8
2023-11-15T03:46:03,42.805,6.029,0.009,-0.007,-0.064,102.0,103.0,103.0,13.3,1505.2,341.2,-0.8,1.8,2471.447,13.3,0.011,127.9
2023-11-15T03:49:03,42.805,6.029,-0.004,0.019,-0.008,103.0,104.0,103.0,13.4,1505.2,345.7,-0.8,1.8,2471.419,13.3,0.019,348.1
2023-11-15T03:52:03,42.805,6.029,0.005,0.005,-0.041,103.0,103.0,103.0,13.3,1505.2,337.7,-0.8,1.8,2471.434,13.3,0.007,45.0
2023-11-15T03:55:03,42.805,6.029,-0.009,0.018,-0.058,102.0,102.0,103.0,13.4,1505.2,342.1,-0.8,1.8,2471.475,13.3,0.02,333.4
2023-11-15T03:58:03,42.805,6.029,-0.013,0.004,-0.035,105.0,104.0,102.0,13.3,1505.2,336.9,-0.7,1.8,2471.426,13.3,0.013,287.1
2023-11-15T04:04:03,42.805,6.029,-0.002,0.035,-0.021,103.0,106.0,102.0,13.4,1505.2,345.5,-0.8,1.8,2471.485,13.3,0.035,356.7
2023-11-15T04:07:03,42.805,6.029,-0.001,0.0,-0.015,104.0,102.0,102.0,13.4,1505.2,344.3,-0.8,1.8,2471.489,13.3,0.001,270.0
2023-11-15T04:10:03,42.805,6.029,-0.005,0.024,-0.036,104.0,103.0,102.0,13.3,1505.2,343.8,-0.8,1.8,2471.5,13.3,0.024,348.2
2023-11-15T04:13:03,42.805,6.029,0.0,-0.01,-0.03,103.0,104.0,102.0,13.3,1505.2,336.2,-0.7,1.8,2471.467,13.3,0.01,180.0
2023-11-15T04:16:03,42.805,6.029,-0.011,0.012,-0.039,104.0,103.0,103.0,13.3,1505.2,353.4,-0.7,1.8,2471.508,13.3,0.016,317.5
2023-11-15T04:19:03,42.805,6.029,-0.002,0.008,-0.02,103.0,104.0,101.0,13.4,1505.2,345.5,-0.8,1.8,2471.511,13.3,0.008,346.0
2023-11-15T04:22:03,42.805,6.029,0.015,0.038,-0.026,104.0,104.0,102.0,13.4,1505.2,341.2,-0.8,1.8,2471.426,13.3,0.04,21.5
2023-11-15T04:25:03,42.805,6.029,-0.004,0.012,-0.037,103.0,104.0,102.0,13.4,1505.2,340.2,-0.7,1.8,2471.532,13.3,0.012,341.6
2023-11-15T04:28:03,42.805,6.029,0.034,-0.008,-0.046,103.0,103.0,102.0,13.4,1505.2,342.1,-0.8,1.8,2471.467,13.3,0.034,103.2
2023-11-15T04:31:03,42.805,6.029,0.028,0.0,-0.046,105.0,103.0,102.0,13.4,1505.2,335.9,-0.8,1.8,2471.505,13.3,0.028,90.0
2023-11-15T04:34:03,42.805,6.029,0.016,-0.001,-0.03,104.0,104.0,103.0,13.4,1505.2,349.1,-0.7,1.8,2471.485,13.3,0.016,93.6
2023-11-15T04:37:03,42.805,6.029,0.0,0.03,-0.047,103.0,104.0,103.0,13.4,1505.2,341.5,-0.8,1.8,2471.478,13.3,0.03,0.0
2023-11-15T04:40:03,42.805,6.029,0.004,0.022,-0.021,106.0,104.0,103.0,13.3,1505.2,333.8,-0.7,1.8,2471.49,13.3,0.022,10.3
2023-11-15T04:43:03,42.805,6.029,-0.001,0.01,-0.025,104.0,104.0,103.0,13.4,1505.2,2.5,-0.8,1.8,2471.489,13.3,0.01,354.3
2023-11-15T04:46:03,42.805,6.029,0.021,0.003,-0.017,107.0,103.0,102.0,13.4,1505.2,351.8,-0.8,1.8,2471.47,13.3,0.021,81.9
2023-11-15T04:49:03,42.805,6.029,-0.011,0.003,-0.002,104.0,104.0,102.0,13.4,1505.2,355.7,-0.7,1.8,2471.498,13.3,0.011,285.3
2023-11-15T04:52:03,42.805,6.029,0.001,0.036,-0.034,103.0,104.0,102.0,13.4,1505.2,350.0,-0.8,1.8,2471.509,13.3,0.036,1.6
2023-11-15T04:55:03,42.805,6.029,0.002,0.001,-0.039,103.0,104.0,103.0,13.3,1505.2,339.4,-0.8,1.8,2471.501,13.3,0.002,63.4
2023-11-15T04:58:03,42.805,6.029,0.004,-0.002,-0.039,103.0,105.0,103.0,13.4,1505.2,354.2,-0.8,1.8,2471.467,13.3,0.004,116.6
2023-11-15T05:04:03,42.805,6.029,-0.017,0.02,-0.037,106.0,104.0,102.0,13.4,1505.2,342.4,-0.7,1.8,2471.557,13.3,0.026,319.6
2023-11-15T05:07:03,42.805,6.029,0.0,-0.013,-0.047,103.0,105.0,102.0,13.4,1505.2,356.3,-0.8,1.8,2471.568,13.3,0.013,180.0
2023-11-15T05:10:03,42.805,6.029,0.012,0.018,-0.014,104.0,103.0,102.0,13.4,1505.2,355.3,-0.8,1.8,2471.552,13.3,0.021,33.7
2023-11-15T05:13:03,42.805,6.029,0.017,0.002,-0.027,104.0,103.0,102.0,13.3,1505.2,352.4,-0.8,1.8,2471.545,13.3,0.017,83.3
2023-11-15T05:16:03,42.805,6.029,-0.028,0.029,-0.022,103.0,104.0,102.0,13.4,1505.2,334.1,-0.8,1.8,2471.551,13.3,0.04,316.0
2023-11-15T05:19:03,42.805,6.029,0.003,0.032,-0.033,105.0,103.0,103.0,13.4,1505.2,341.0,-0.8,1.8,2471.567,13.3,0.032,5.4
2023-11-15T05:22:03,42.805,6.029,0.002,0.02,-0.045,105.0,103.0,103.0,13.4,1505.2,336.5,-0.8,1.8,2471.539,13.3,0.02,5.7
2023-11-15T05:25:03,42.805,6.029,0.009,0.023,-0.033,103.0,103.0,103.0,13.4,1505.2,345.3,-0.7,1.8,2471.555,13.3,0.024,21.4
2023-11-15T05:28:03,42.805,6.029,0.013,0.008,-0.037,104.0,103.0,102.0,13.4,1505.2,337.5,-0.7,1.8,2471.56,13.3,0.015,58.4
2023-11-15T05:31:03,42.805,6.029,0.007,0.014,-0.024,102.0,105.0,103.0,13.3,1505.2,0.8,-0.7,1.8,2471.552,13.3,0.015,26.6
2023-11-15T05:34:03,42.805,6.029,0.005,-0.003,-0.016,104.0,103.0,102.0,13.3,1505.2,351.4,-0.8,1.8,2471.559,13.3,0.005,121.0
2023-11-15T05:37:03,42.805,6.029,0.005,0.021,-0.008,103.0,104.0,102.0,13.4,1505.2,334.1,-0.8,1.8,2471.551,13.3,0.021,13.4
2023-11-15T05:40:03,42.805,6.029,0.015,0.0,-0.031,104.0,105.0,103.0,13.4,1505.2,339.8,-0.8,1.8,2471.539,13.3,0.015,90.0
2023-11-15T05:43:03,42.805,6.029,-0.005,0.02,-0.04,105.0,104.0,102.0,13.4,1505.2,336.5,-0.7,1.8,2471.582,13.3,0.02,346.0
2023-11-15T05:46:03,42.805,6.029,0.02,-0.006,-0.018,103.0,104.0,103.0,13.3,1505.2,347.3,-0.8,1.8,2471.576,13.3,0.02,106.7
2023-11-15T05:49:03,42.805,6.029,0.007,0.008,-0.038,102.0,104.0,102.0,13.4,1505.2,342.8,-0.8,1.8,2471.571,13.3,0.01,41.2
2023-11-15T05:52:03,42.805,6.029,0.012,0.012,-0.049,105.0,104.0,103.0,13.4,1505.2,345.9,-0.8,1.8,2471.559,13.3,0.016,45.0
2023-11-15T05:55:03,42.805,6.029,0.007,0.01,-0.005,105.0,104.0,102.0,13.4,1505.2,337.2,-0.8,1.8,2471.576,13.3,0.012,35.0
2023-11-15T05:58:03,42.805,6.029,0.005,0.003,-0.013,104.0,104.0,103.0,13.3,1505.2,0.0,-0.8,1.8,2471.607,13.3,0.005,59.0
2023-11-15T06:04:03,42.805,6.029,-0.001,0.008,-0.052,103.0,105.0,102.0,13.4,1505.2,345.2,-0.8,1.8,2471.65,13.29,0.008,352.9
2023-11-15T06:07:03,42.805,6.029,-0.008,0.019,-0.035,103.0,103.0,103.0,13.4,1505.2,344.0,-0.7,1.8,2471.629,13.29,0.02,337.2
2023-11-15T06:10:03,42.805,6.029,0.015,0.032,-0.005,104.0,104.0,103.0,13.4,1505.2,343.4,-0.8,1.8,2471.644,13.29,0.035,25.1
2023-11-15T06:13:03,42.805,6.029,0.006,0.008,0.011,104.0,104.0,102.0,13.4,1505.2,337.6,-0.8,1.8,2471.59,13.29,0.01,36.9
2023-11-15T06:16:03,42.805,6.029,0.007,0.013,-0.034,105.0,104.0,102.0,13.3,1505.2,0.0,-0.8,1.8,2471.617,13.29,0.014,28.3
2023-11-15T06:19:03,42.805,6.029,0.012,-0.006,-0.007,103.0,104.0,102.0,13.4,1505.2,354.3,-0.8,1.8,2471.61,13.29,0.013,116.6
2023-11-15T06:22:03,42.805,6.029,0.007,0.008,-0.016,103.0,105.0,103.0,13.4,1505.2,357.3,-0.8,1.8,2471.607,13.29,0.01,41.2
2023-11-15T06:25:03,42.805,6.029,0.004,0.048,-0.008,103.0,104.0,103.0,13.4,1505.2,350.9,-0.7,1.8,2471.596,13.29,0.048,4.8
2023-11-15T06:28:03,42.805,6.029,0.009,0.006,-0.05,105.0,104.0,102.0,13.4,1505.2,334.9,-0.7,1.8,2471.633,13.29,0.01,56.3
2023-11-15T06:31:03,42.805,6.029,0.0,0.015,-0.049,103.0,103.0,103.0,13.4,1505.2,339.6,-0.8,1.8,2471.615,13.3,0.015,0.0
2023-11-15T06:34:03,42.805,6.029,0.01,0.018,-0.025,103.0,104.0,103.0,13.4,1505.2,342.0,-0.8,1.8,2471.651,13.29,0.02,29.1
2023-11-15T06:37:03,42.805,6.029,-0.002,0.022,-0.011,104.0,102.0,103.0,13.3,1505.2,0.0,-0.7,1.8,2471.603,13.3,0.022,354.8
2023-11-15T06:40:03,42.805,6.029,0.004,0.03,0.003,104.0,103.0,102.0,13.4,1505.2,352.2,-0.8,1.8,2471.619,13.3,0.03,7.6
2023-11-15T06:43:03,42.805,6.029,0.001,0.033,-0.006,104.0,104.0,102.0,13.4,1505.2,343.6,-0.8,1.8,2471.626,13.3,0.033,1.7
2023-11-15T06:46:03,42.805,6.029,0.011,0.012,-0.035,104.0,103.0,103.0,13.4,1505.2,353.5,-0.8,1.8,2471.664,13.3,0.016,42.5
2023-11-15T06:49:03,42.805,6.029,0.01,0.018,-0.015,105.0,104.0,103.0,13.3,1505.2,354.6,-0.8,1.8,2471.619,13.3,0.02,29.1
2023-11-15T06:52:03,42.805,6.029,0.002,0.021,-0.025,104.0,103.0,102.0,13.3,1505.2,338.4,-0.7,1.8,2471.62,13.3,0.021,5.4
2023-11-15T06:55:03,42.805,6.029,-0.003,0.017,-0.042,103.0,103.0,102.0,13.4,1505.2,346.4,-0.8,1.8,2471.642,13.3,0.017,350.0
2023-11-15T06:58:03,42.805,6.029,-0.019,0.044,-0.006,104.0,104.0,103.0,13.4,1505.2,338.0,-0.8,1.8,2471.656,13.3,0.047,336.6
2023-11-15T07:04:03,42.805,6.029,0.007,0.017,-0.013,103.0,103.0,104.0,13.4,1505.2,334.9,-0.8,1.8,2471.696,13.29,0.018,22.4
2023-11-15T07:07:03,42.805,6.029,0.001,0.016,-0.022,104.0,103.0,103.0,13.4,1505.2,348.5,-0.7,1.8,2471.681,13.29,0.016,3.6
2023-11-15T07:10:03,42.805,6.029,0.014,0.02,-0.02,102.0,104.0,103.0,13.4,1505.2,345.0,-0.8,1.9,2471.714,13.29,0.024,35.0
2023-11-15T07:13:03,42.805,6.029,0.039,-0.014,0.001,105.0,104.0,103.0,13.4,1505.2,0.9,-0.8,1.8,2471.678,13.29,0.041,109.7
2023-11-15T07:16:03,42.805,6.029,0.0,0.017,-0.029,103.0,105.0,102.0,13.4,1505.2,352.2,-0.8,1.8,2471.691,13.29,0.017,0.0
2023-11-15T07:19:03,42.805,6.029,0.012,0.028,-0.03,105.0,103.0,102.0,13.4,1505.2,358.2,-0.8,1.8,2471.679,13.29,0.03,23.2
2023-11-15T07:22:03,42.805,6.029,0.02,0.005,-0.048,104.0,103.0,102.0,13.3,1505.2,348.3,-0.8,1.8,2471.662,13.29,0.02,76.0
2023-11-15T07:25:03,42.805,6.029,0.004,0.011,-0.031,103.0,102.0,102.0,13.4,1505.2,335.2,-0.8,1.8,2471.648,13.29,0.011,20.0
2023-11-15T07:28:03,42.805,6.029,-0.004,0.02,-0.027,103.0,102.0,102.0,13.4,1505.2,340.7,-0.8,1.8,2471.654,13.3,0.02,348.7
2023-11-15T07:31:03,42.805,6.029,-0.001,0.02,-0.011,105.0,103.0,102.0,13.4,1505.2,337.8,-0.8,1.9,2471.69,13.3,0.02,357.1
2023-11-15T07:34:03,42.805,6.029,0.001,0.016,-0.026,105.0,102.0,102.0,13.4,1505.2,352.1,-0.8,1.8,2471.642,13.3,0.016,3.6
2023-11-15T07:37:03,42.805,6.029,0.015,0.038,-0.001,103.0,104.0,102.0,13.4,1505.2,355.3,-0.7,1.9,2471.648,13.3,0.04,21.5
2023-11-15T07:40:03,42.805,6.029,0.013,-0.011,-0.035,104.0,103.0,103.0,13.3,1505.2,358.2,-0.7,1.8,2471.66,13.3,0.017,130.2
2023-11-15T07:43:03,42.805,6.029,0.013,-0.02,-0.043,102.0,103.0,102.0,13.4,1505.2,351.1,-0.7,1.8,2471.69,13.3,0.023,147.0
2023-11-15T07:46:03,42.805,6.029,0.018,-0.005,-0.023,103.0,102.0,102.0,13.4,1505.2,0.0,-0.8,1.8,2471.658,13.3,0.018,105.5
2023-11-15T07:49:03,42.805,6.029,-0.012,0.02,-0.04,103.0,103.0,103.0,13.4,1505.2,344.8,-0.8,1.8,2471.67,13.3,0.023,329.0
2023-11-15T07:52:03,42.805,6.029,0.001,0.028,-0.018,103.0,104.0,102.0,13.3,1505.2,356.5,-0.8,1.8,2471.672,13.3,0.028,2.0
2023-11-15T07:55:03,42.805,6.029,0.03,0.011,-0.011,103.0,104.0,101.0,13.4,1505.2,352.9,-0.7,1.8,2471.663,13.3,0.031,69.9
2023-11-15T07:58:03,42.805,6.029,0.002,0.02,-0.003,104.0,103.0,102.0,13.3,1505.2,343.6,-0.8,1.8,2471.639,13.3,0.02,5.7
2023-11-15T08:04:03,42.805,6.029,0.017,0.021,0.002,103.0,103.0,102.0,13.4,1505.2,336.6,-0.8,1.8,2471.719,13.29,0.027,39.0
2023-11-15T08:07:03,42.805,6.029,0.019,0.013,-0.006,103.0,104.0,102.0,13.4,1505.2,355.6,-0.7,1.8,2471.726,13.29,0.023,55.6
2023-11-15T08:10:03,42.805,6.029,0.012,0.004,-0.015,101.0,104.0,103.0,13.4,1505.2,349.2,-0.7,1.8,2471.709,13.29,0.012,71.6
2023-11-15T08:13:03,42.805,6.029,0.017,0.023,-0.009,104.0,103.0,102.0,13.3,1505.2,336.2,-0.7,1.8,2471.695,13.29,0.028,36.5
2023-11-15T08:16:03,42.805,6.029,0.008,0.039,-0.024,103.0,104.0,102.0,13.4,1505.2,343.9,-0.8,1.8,2471.7,13.3,0.039,11.6
2023-11-15T08:19:03,42.805,6.029,0.017,0.018,-0.024,104.0,104.0,102.0,13.4,1505.2,350.3,-0.8,1.8,2471.69,13.3,0.024,43.4
2023-11-15T08:22:03,42.805,6.029,0.009,0.002,-0.044,104.0,103.0,102.0,13.4,1505.2,350.6,-0.7,1.8,2471.7,13.3,0.009,77.5
2023-11-15T08:25:03,42.805,6.029,0.003,0.006,-0.028,104.0,104.0,103.0,13.3,1505.2,352.4,-0.8,1.8,2471.629,13.3,0.006,26.6
2023-11-15T08:28:03,42.805,6.029,-0.007,0.02,-0.025,104.0,103.0,103.0,13.4,1505.2,350.5,-0.8,1.8,2471.71,13.3,0.021,340.7
2023-11-15T08:31:03,42.805,6.029,-0.011,0.021,-0.053,101.0,104.0,103.0,13.3,1505.2,341.8,-0.7,1.8,2471.695,13.3,0.023,332.4
2023-11-15T08:34:03,42.805,6.029,0.005,0.015,-0.001,104.0,105.0,102.0,13.3,1505.2,340.9,-0.8,1.8,2471.723,13.3,0.015,18.4
2023-11-15T08:37:03,42.805,6.029,0.025,0.014,0.005,104.0,104.0,102.0,13.4,1505.2,359.1,-0.8,1.8,2471.699,13.3,0.028,60.7
2023-11-15T08:40:03,42.805,6.029,-0.009,0.006,-0.031,103.0,109.0,102.0,13.3,1505.2,349.2,-0.8,1.8,2471.674,13.3,0.01,303.7
2023-11-15T08:43:03,42.805,6.029,0.011,0.016,-0.013,103.0,105.0,103.0,13.4,1505.2,335.2,-0.8,1.8,2471.716,13.3,0.019,34.5
2023-11-15T08:46:03,42.805,6.029,0.018,0.005,-0.019,103.0,103.0,102.0,13.4,1505.2,350.8,-0.7,1.8,2471.663,13.3,0.018,74.5
2023-11-15T08:49:03,42.805,6.029,0.019,0.007,-0.028,102.0,104.0,103.0,13.4,1505.2,349.6,-0.7,1.8,2471.67,13.29,0.02,69.8
2023-11-15T08:52:03,42.805,6.029,0.015,-0.002,-0.036,103.0,103.0,103.0,13.4,1505.2,342.5,-0.7,1.8,2471.647,13.3,0.015,97.6
2023-11-15T08:55:03,42.805,6.029,0.014,-0.003,-0.019,105.0,103.0,102.0,13.3,1505.2,344.7,-0.7,1.8,2471.693,13.3,0.014,102.1
2023-11-15T08:58:03,42.805,6.029,-0.001,0.007,-0.035,104.0,104.0,103.0,13.4,1505.2,334.1,-0.8,1.8,2471.675,13.3,0.007,351.9
2023-11-15T10:04:04,42.805,6.029,0.04,0.007,-0.013,105.0,104.0,102.0,13.4,1505.2,351.1,-0.8,1.8,2472.184,13.28,0.04,80.1
2023-11-15T10:07:03,42.805,6.029,0.005,0.01,-0.055,104.0,103.0,102.0,13.4,1505.2,336.1,-0.7,1.8,2472.071,13.28,0.011,26.6
2023-11-15T10:10:03,42.805,6.029,0.019,0.011,-0.017,104.0,103.0,102.0,13.4,1505.2,342.1,-0.8,1.9,2471.953,13.29,0.021,59.9
2023-11-15T10:13:03,42.805,6.029,-0.004,0.028,-0.019,104.0,103.0,102.0,13.4,1505.2,353.4,-0.8,1.7,2471.891,13.29,0.028,351.9
2023-11-15T10:16:03,42.805,6.029,0.026,0.004,-0.044,103.0,104.0,102.0,13.4,1505.2,335.6,-0.8,1.8,2471.85,13.29,0.026,81.3
2023-11-15T10:19:03,42.805,6.029,0.004,0.021,-0.031,103.0,103.0,103.0,13.3,1505.2,0.0,-0.8,1.8,2471.757,13.29,0.021,10.8
2023-11-15T10:22:03,42.805,6.029,0.024,0.024,-0.007,105.0,105.0,103.0,13.4,1505.2,340.7,-0.8,1.8,2471.731,13.29,0.033,45.0
2023-11-15T10:25:03,42.805,6.029,0.015,0.044,0.018,103.0,104.0,102.0,13.4,1505.2,342.4,-0.7,1.8,2471.678,13.29,0.046,18.8
2023-11-15T10:28:03,42.805,6.029,0.005,0.023,-0.022,104.0,106.0,101.0,13.3,1505.2,339.2,-0.7,1.8,2471.682,13.29,0.023,12.3
2023-11-15T10:31:03,42.805,6.029,0.008,0.029,-0.026,104.0,104.0,104.0,13.4,1505.2,357.2,-0.8,1.7,2471.664,13.29,0.03,15.4
2023-11-15T10:34:03,42.805,6.029,0.003,0.013,-0.02,103.0,105.0,103.0,13.3,1505.2,346.1,-0.8,1.8,2471.631,13.29,0.013,13.0
2023-11-15T10:37:03,42.805,6.029,-0.012,0.015,-0.046,103.0,104.0,103.0,13.4,1505.2,345.0,-0.8,1.8,2471.658,13.29,0.019,321.3
2023-11-15T10:40:03,42.805,6.029,-0.009,0.042,-0.014,103.0,104.0,103.0,13.3,1505.2,344.3,-0.7,1.8,2471.62,13.29,0.042,347.9
2023-11-15T10:43:03,42.805,6.029,0.013,0.013,0.005,105.0,105.0,101.0,13.3,1505.2,345.3,-0.8,1.8,2471.636,13.29,0.018,45.0
2023-11-15T10:46:03,42.805,6.029,0.025,-0.002,-0.007,104.0,105.0,102.0,13.4,1505.2,345.7,-0.7,1.8,2471.587,13.29,0.025,94.6
2023-11-15T10:49:03,42.805,6.029,0.017,0.0,-0.015,105.0,104.0,103.0,13.3,1505.2,347.3,-0.7,1.8,2471.595,13.3,0.017,90.0
2023-11-15T10:52:03,42.805,6.029,0.014,0.006,-0.036,105.0,103.0,103.0,13.3,1505.2,353.4,-0.8,1.8,2471.608,13.3,0.015,66.8
2023-11-15T10:55:03,42.805,6.029,0.018,0.0,-0.015,106.0,104.0,103.0,13.3,1505.2,335.6,-0.7,1.9,2471.597,13.3,0.018,90.0
2023-11-15T10:58:03,42.805,6.029,0.003,0.027,-0.038,104.0,104.0,103.0,13.4,1505.2,357.1,-0.8,1.8,2471.613,13.3,0.027,6.3
2023-11-15T11:04:03,42.805,6.029,0.011,0.018,-0.039,104.0,103.0,103.0,13.4,1505.2,353.9,-0.8,1.8,2471.671,13.29,0.021,31.4
2023-11-15T11:07:03,42.805,6.029,0.003,0.025,-0.01,103.0,104.0,103.0,13.4,1505.2,341.2,-0.8,1.8,2471.625,13.29,0.025,6.8